COSMOS 2491 DEB, 57563

Orbit data source: Space-Track

COSMOS 2491 DEB, 57563 is space debris in LEO originally from a launch on Wed, 25 Dec 2013 UTC launched from the Plesetsk Missile And Space Complex (PKMTR). Debris objects in space refer to the collection of defunct objects orbiting the Earth. Examples of debris include non-operational satellites, rocket bodies, and fragments generated from explosions, collisions, or faulty payload assembly.

Loading next visibility...
Identifier
57563, 2013-076BA
Orbit
LEO
Country
Flag of CISCIS
Related business
Manufacturer
TsNIIKhM
Mission
Spacecraft
Bus & Motor
Unknown
Mass
Unknown
Launch date (UTC)
2013-12-25 (13 years ago)
Launch vehicle
Unknown
Launch site
Plesetsk Missile And Space Complex (PKMTR)
Object type
Payload
Rocket body
Debris
Shape & HBR
Unknown shape, 0.1 m
Radar Cross Section
Small (<0.1 m²)

Expand to show TLE details & history
Last TLE update: 1 day ago

TLE from 1 day ago
0 COSMOS 2491 DEB
1 57563U 13076BA  26177.16188076  .00002510  00000-0  13457-1 0  9992
2 57563  82.4616 131.5593 0132730  13.5205 346.9386 12.62570581143750
Epoch: 2026-06-26T03:53Z
TLE epoch observation values (Epoch: 2026-06-26T03:53:06.497Z)
Latitude
-0.00004°
Longitude
158.98787°
Altitude
1,314.406 km
Speed
7.246 km/s
True Right ascension
08h 46m 14s
True Declination
0° 00' 00"
Sunlit
Object was in daylight at epoch
Visualization orbit readout
Latitude
Unknown
Longitude
Unknown
Altitude
Unknown
Speed
Unknown
Apparent Right ascension
Unknown
Apparent Declination
Unknown
Sunlit
N/A
Visualization observer readout
Local Sidereal Time
03:09:07
Azimuth
Unknown
Elevation
Unknown
Doppler factor
Unknown
Orbital elements
Apogee altitude
1,513.044 km
Perigee altitude
1,306.309 km
Semi-major axis
7,787.813 km
Eccentricity
0.01327
Inclination
82.4616°
RAAN
131.5593°
Arg. of periapsis
13.5205°
True anomaly
346.58923°
Mean anomaly
346.9386°
Eccentric anomaly
346.76448°
Mean motion
3.15806 °/min
Orbital period
113.99 mins
BSTAR
0.013457
Loading maneuver chart data...
Computing Atmospheric mass density...
Loading historical data...
Loading historical data...
Loading historical data...
Loading historical data...
Loading historical data...
Loading historical data...
Loading historical data...

Documentation

Showing up to 5 results
|